User: anonymous   Login
Location: Unspecified
(0.0000°N, 0.0000°E)
Time: 01:03:11
(UTC+00:00)
Language:

STARLINK-31837 - Orbit

View from above orbital plane
View from above orbital plane
View from above satellite
View from above satellite

Ground track
Ground track

The orbit is defined by the following mean orbital elements,

1 61514U          26145.44109720 +.00000000 +00000-0 +12287-4 0 00009
2 61514  53.1583 145.9217 0001008  73.9450 286.1661 15.30191046    00
Epoch (UTC): 25 May 2026 10:35:10
Eccentricity: 0.0001008
inclination: 53.1583°
perigee height: 475 km
apogee height: 476 km
right ascension of ascending node: 145.9217°
argument of perigee: 73.9450°
revolutions per day: 15.30191046
mean anomaly at epoch: 286.1661°

The dashed part of the orbit path shows where the satellite is in the earth's shadow,  

DLR